Lorton, VA

9:44 AM EST on February 23, 2017 (GMT -0500)
Davison Army Air Field

Weather History for KDAA - April, 2014

Change the Weather History Date:

Monday, April 14, 2014

  Actual Average Record
Temperature  
Mean Temperature 70 °F -  
Max Temperature 78 °F 65 °F 78 °F (2014)
Min Temperature 64 °F 43 °F 31 °F (2016)
Cooling Degree Days 6    
Growing Degree Days 20 (Base 50)    
Moisture  
Dew Point 55 °F    
Average Humidity 58    
Maximum Humidity 89    
Minimum Humidity 43    
Precipitation  
Precipitation 0.03 in - - ()
Sea Level Pressure  
Sea Level Pressure 29.92 in    
Wind  
Wind Speed 8 mph (South)    
Max Wind Speed 17 mph    
Max Gust Speed 26 mph    
Visibility 9 miles    
Events Rain    
Averages and records for this station are not official NWS values.
T = Trace of Precipitation, MM = Missing Value Source: NWS Daily Summary

Daily Weather History Graph

Daily Weather History Graph

Search for Another Location

Airport or City:

Trip Planner

Search our weather history database for the weather conditions in past years. The results will help you decide how hot, cold, wet, or windy it might be!

Date:

Astronomy

Apr. 14, 2014 Rise Set
Actual Time 6:33 AM EDT 7:44 PM EDT
Civil Twilight 6:06 AM EDT 8:12 PM EDT
Nautical Twilight 5:33 AM EDT 8:44 PM EDT
Astronomical Twilight 4:59 AM EDT 9:19 PM EDT
Moon 7:21 PM EDT (4/14) 6:04 AM EDT (4/14)
Length of Visible Light 14h 05m
Length of Day
13h 10m
Full, 100% of the Moon is Illuminated
Apr 14
Full
Apr 15
Full
Apr 22
Last Quarter
Apr 29
New
May 6
First Quarter

Hourly Weather History & Observations

Time (EDT) Temp. Dew Point Humidity Pressure Visibility Wind Dir Wind Speed Gust Speed Precip Events Conditions
12:58 AM 70.9 °F 53.2 °F 54% 30.03 in 10.0 mi SSE 8.1 mph - N/A   Clear
1:58 AM 70.0 °F 53.8 °F 56% 30.02 in 10.0 mi Variable 6.9 mph - N/A   Clear
2:58 AM 68.7 °F 53.6 °F 58% 30.00 in 10.0 mi SSE 8.1 mph 19.6 mph N/A   Clear
3:58 AM 67.6 °F 53.1 °F 59% 30.00 in 10.0 mi SSE 8.1 mph - N/A   Clear
4:58 AM 66.2 °F 53.2 °F 63% 30.00 in 10.0 mi Variable 5.8 mph - N/A   Clear
5:58 AM 65.3 °F 53.4 °F 65% 29.99 in 10.0 mi SSE 8.1 mph - N/A   Clear
6:58 AM 64.4 °F 54.1 °F 69% 30.00 in 10.0 mi Variable 5.8 mph - N/A   Clear
7:58 AM 66.2 °F 55.6 °F 69% 30.01 in 10.0 mi South 8.1 mph - N/A   Clear
8:58 AM 68.4 °F 57.2 °F 67% 29.99 in 10.0 mi South 9.2 mph 19.6 mph N/A   Clear
9:58 AM 68.9 °F 57.7 °F 68% 30.00 in 10.0 mi South 11.5 mph 19.6 mph N/A   Mostly Cloudy
10:58 AM 70.9 °F 57.9 °F 63% 30.00 in 10.0 mi South 11.5 mph 18.4 mph N/A   Mostly Cloudy
11:58 AM 72.5 °F 56.7 °F 57% 30.00 in 10.0 mi South 9.2 mph 21.9 mph N/A   Mostly Cloudy
12:58 PM 76.6 °F 55.6 °F 48% 29.96 in 10.0 mi South 17.3 mph 26.5 mph N/A   Scattered Clouds
1:58 PM 77.0 °F 53.4 °F 44% 29.93 in 10.0 mi SSE 13.8 mph 26.5 mph N/A   Scattered Clouds
2:58 PM 77.2 °F 52.9 °F 43% 29.92 in 10.0 mi South 8.1 mph 21.9 mph N/A   Scattered Clouds
3:58 PM 76.6 °F 53.1 °F 44% 29.90 in 10.0 mi South 9.2 mph - N/A   Partly Cloudy
4:58 PM 75.9 °F 53.1 °F 45% 29.88 in 10.0 mi Variable 5.8 mph - N/A   Mostly Cloudy
5:58 PM 75.4 °F 51.3 °F 43% 29.87 in 10.0 mi South 6.9 mph - N/A   Scattered Clouds
6:58 PM 74.3 °F 51.8 °F 45% 29.85 in 10.0 mi Variable 5.8 mph - N/A   Scattered Clouds
7:58 PM 73.4 °F 51.6 °F 46% 29.84 in 10.0 mi SE 6.9 mph - N/A   Mostly Cloudy
8:58 PM 73.0 °F 52.0 °F 48% 29.85 in 10.0 mi SSE 10.4 mph - N/A   Clear
9:58 PM 71.6 °F 52.9 °F 52% 29.85 in 10.0 mi SE 4.6 mph - N/A   Mostly Cloudy
10:58 PM 70.5 °F 53.8 °F 55% 29.84 in 10.0 mi SE 5.8 mph - N/A   Overcast
11:24 PM 71.6 °F 55.4 °F 57% 29.83 in 10.0 mi Variable 5.8 mph - N/A Rain Light Rain
11:35 PM 71.6 °F 57.2 °F 60% 29.83 in 10.0 mi Variable 4.6 mph - N/A   Overcast
11:41 PM 71.6 °F 57.2 °F 60% 29.84 in 9.0 mi SSW 9.2 mph - N/A Rain Light Rain
11:46 PM 69.8 °F 59.0 °F 68% 29.84 in 5.0 mi South 9.2 mph 19.6 mph N/A Rain Light Rain
11:51 PM 68.0 °F 62.6 °F 83% 29.84 in 3.0 mi Variable 4.6 mph 19.6 mph N/A Rain Rain
11:58 PM 66.4 °F 63.0 °F 89% 29.85 in 4.0 mi Variable 3.5 mph - 0.03 in Rain Light Rain